Zurück zum Katalog

SL-8 DEB

AktivLEO
NORAD 21137·DEBRIS·🇷🇺 Russia

Gestartet Feb 12, 1991 von Plesetsk Cosmodrome

Loading…

Nächste Überflüge (nächste 24 Stunden)

TLE

AktuellSource: Space-Track

Epoche: Sep 13, 2026, 18:52 UTC

1 21137U 91009P   26256.78640271 -.00000017  00000-0 -16706-4 0  9993
2 21137  74.0441 138.7388 0151567 220.2971 210.9785 12.18046949581316

Verfolge SL-8 DEB in Echtzeit mit AllMySat

Download on the App Store